Total_Precipitation_Accumulation
0.18 0.23 0.30 0.32 0.27 0.26 0.27 0.31 0.46 0.44 0.57 0.82 0.91 0.83 0.86 0.86 0.66 0.60 0.69 0.66 0.60 0.69 0.85 0.91 0.90 0.89 0.85 0.89 0.94 1.06 1.30 1.42 1.42 1.37 1.28 1.22 1.14 1.11 1.08 1.12 1.13 1.18 1.30 1.39
0.19 0.26 0.31 0.32 0.28 0.23 0.20 0.20 0.27 0.34 0.54 0.64 0.61 0.68 0.73 0.69 0.65 0.67 0.78 0.74 0.67 0.67 0.71 0.84 0.90 0.93 0.96 1.02 1.08 1.13 1.16 1.22 1.31 1.38 1.38 1.32 1.16 1.10 1.17 1.20 1.19 1.18 1.19 1.28
0.30 0.30 0.36 0.41 0.32 0.26 0.23 0.20 0.26 0.45 0.66 0.65 0.62 0.70 0.64 0.56 0.55 0.68 0.76 0.69 0.64 0.67 0.70 0.77 0.79 0.85 1.02 1.04 0.99 0.99 1.08 1.16 1.25 1.31 1.29 1.23 1.11 1.11 1.15 1.15 1.18 1.22 1.21 1.22
0.40 0.51 0.64 0.43 0.26 0.25 0.28 0.25 0.23 0.34 0.48 0.55 0.53 0.56 0.58 0.52 0.50 0.51 0.55 0.57 0.58 0.64 0.71 0.74 0.70 0.66 0.72 0.81 0.87 0.90 0.97 1.07 1.15 1.21 1.28 1.32 1.28 1.20 1.24 1.26 1.22 1.25 1.25 1.22
0.53 0.67 0.56 0.37 0.33 0.35 0.39 0.42 0.34 0.38 0.44 0.54 0.57 0.59 0.67 0.57 0.52 0.49 0.45 0.48 0.59 0.71 0.70 0.69 0.67 0.64 0.70 0.84 0.94 1.01 1.03 1.10 1.13 1.21 1.36 1.42 1.33 1.30 1.35 1.32 1.24 1.23 1.22 1.16
0.64 0.81 0.76 0.57 0.42 0.38 0.48 0.84 0.59 0.47 0.47 0.57 0.63 0.73 0.81 0.64 0.58 0.54 0.50 0.49 0.54 0.57 0.55 0.59 0.69 0.77 0.86 1.01 1.16 1.19 1.14 1.17 1.25 1.32 1.43 1.53 1.56 1.55 1.49 1.45 1.37 1.33 1.27 1.21
0.73 0.88 0.76 0.56 0.46 0.52 0.90 1.10 0.75 0.63 0.59 0.64 0.74 0.73 0.70 0.64 0.56 0.54 0.56 0.57 0.58 0.62 0.64 0.67 0.71 0.89 1.08 1.16 1.21 1.23 1.23 1.24 1.34 1.43 1.57 1.74 1.90 1.84 1.78 1.71 1.68 1.62 1.53 1.44
0.97 1.13 1.12 0.69 0.58 0.86 1.07 0.86 0.80 0.79 0.76 0.72 0.65 0.59 0.58 0.62 0.59 0.55 0.57 0.65 0.71 0.80 0.83 0.75 0.75 0.89 1.07 1.16 1.20 1.31 1.33 1.39 1.44 1.56 1.62 1.77 2.11 2.12 2.13 2.11 1.96 1.89 1.78 1.67
1.27 1.26 1.02 0.91 0.96 0.99 1.03 0.92 0.86 0.72 0.64 0.62 0.62 0.62 0.66 0.75 0.75 0.66 0.60 0.67 0.73 0.83 0.90 0.91 0.97 1.07 1.23 1.29 1.35 1.42 1.54 1.64 1.70 1.76 1.88 1.98 2.11 2.15 2.18 2.17 2.06 1.95 1.85 1.69
1.42 1.32 1.19 1.06 0.97 1.02 1.17 1.05 0.86 0.72 0.67 0.67 0.67 0.61 0.59 0.64 0.69 0.68 0.66 0.72 0.78 0.83 1.03 1.16 1.20 1.25 1.33 1.41 1.54 1.69 1.83 1.92 1.97 1.98 1.99 2.04 2.18 2.16 2.16 2.16 2.08 2.00 1.95 1.83
1.53 1.49 1.48 1.28 1.00 0.93 0.96 0.89 0.76 0.75 0.73 0.73 0.76 0.70 0.62 0.60 0.62 0.68 0.77 0.84 0.90 1.00 1.13 1.19 1.28 1.38 1.47 1.63 1.80 1.89 1.92 1.95 1.95 1.99 2.11 2.19 2.17 2.15 2.19 2.24 2.20 2.16 2.11 2.11
1.66 1.49 1.47 1.37 1.10 0.96 0.84 0.75 0.71 0.84 0.88 0.80 0.79 0.79 0.73 0.69 0.71 0.76 0.83 0.94 1.03 1.11 1.20 1.25 1.40 1.58 1.70 1.84 2.03 2.19 2.14 2.08 2.10 2.15 2.21 2.22 2.19 2.11 2.15 2.09 2.01 1.95 1.97 1.99
1.36 1.26 1.22 1.22 1.18 1.03 0.83 0.76 0.76 0.90 0.95 0.93 0.87 0.82 0.80 0.81 0.76 0.77 0.82 0.91 0.98 1.08 1.18 1.22 1.32 1.53 1.71 1.93 2.05 2.18 2.16 2.12 2.19 2.27 2.37 2.36 2.33 2.28 2.29 2.17 1.99 1.83 1.83 1.89
1.23 1.22 1.24 1.20 1.19 1.08 0.94 0.94 0.97 1.08 1.09 1.10 1.08 0.98 0.93 0.97 0.89 0.86 0.91 0.97 1.00 1.11 1.17 1.28 1.37 1.47 1.59 1.79 1.97 2.06 2.11 2.14 2.14 2.14 2.15 2.18 2.24 2.27 2.26 2.14 1.97 1.79 1.68 1.66
1.21 1.25 1.30 1.22 1.15 1.08 0.99 0.97 1.06 1.13 1.12 1.13 1.11 1.17 1.27 1.26 1.16 1.06 1.01 1.00 1.06 1.17 1.16 1.28 1.45 1.56 1.67 1.82 1.90 1.96 1.99 1.95 1.90 1.93 1.97 2.04 2.10 2.06 1.98 1.92 1.84 1.71 1.55 1.53
1.14 1.19 1.28 1.29 1.26 1.17 1.02 1.04 1.10 1.01 0.99 1.10 1.15 1.22 1.25 1.21 1.19 1.17 1.07 1.03 1.13 1.17 1.18 1.25 1.37 1.51 1.65 1.78 1.82 1.83 1.86 1.89 1.85 1.76 1.75 1.84 1.88 1.87 1.81 1.80 1.80 1.77 1.60 1.53
1.29 1.36 1.36 1.46 1.51 1.29 1.17 1.12 1.12 1.09 1.01 1.10 1.13 1.08 1.06 1.11 1.21 1.27 1.22 1.13 1.13 1.14 1.21 1.30 1.32 1.42 1.59 1.80 1.87 1.77 1.68 1.64 1.72 1.68 1.62 1.67 1.77 1.81 1.80 1.82 1.78 1.67 1.53 1.44
1.35 1.33 1.33 1.43 1.56 1.43 1.36 1.26 1.15 1.21 1.21 1.24 1.28 1.16 1.10 1.10 1.16 1.25 1.26 1.14 1.13 1.13 1.16 1.30 1.39 1.43 1.51 1.82 2.02 1.88 1.71 1.61 1.52 1.51 1.54 1.56 1.61 1.69 1.68 1.66 1.64 1.52 1.37 1.30
1.35 1.34 1.35 1.43 1.45 1.43 1.45 1.40 1.23 1.14 1.17 1.20 1.29 1.20 1.14 1.15 1.14 1.10 1.14 1.16 1.20 1.22 1.23 1.30 1.43 1.41 1.47 1.66 1.84 1.79 1.67 1.59 1.50 1.46 1.51 1.56 1.54 1.54 1.52 1.48 1.46 1.42 1.33 1.27
1.42 1.41 1.41 1.43 1.45 1.44 1.40 1.37 1.30 1.23 1.22 1.23 1.17 1.12 1.12 1.09 1.10 1.08 1.11 1.16 1.18 1.23 1.24 1.26 1.13 1.14 1.31 1.51 1.64 1.57 1.57 1.51 1.42 1.38 1.45 1.50 1.48 1.42 1.32 1.24 1.24 1.21 1.11 1.06
1.45 1.42 1.39 1.38 1.40 1.36 1.32 1.36 1.38 1.34 1.31 1.29 1.18 1.12 1.14 1.12 1.08 1.11 1.20 1.25 1.18 1.16 1.16 1.24 1.08 1.00 1.04 1.32 1.47 1.36 1.37 1.38 1.37 1.35 1.37 1.43 1.40 1.30 1.17 1.11 1.05 1.01 1.00 1.00
1.35 1.36 1.35 1.36 1.37 1.33 1.18 1.18 1.28 1.26 1.21 1.19 1.13 1.11 1.17 1.23 1.19 1.14 1.13 1.23 1.24 1.25 1.09 1.06 0.98 0.99 1.02 1.11 1.19 1.28 1.27 1.30 1.33 1.29 1.26 1.28 1.30 1.23 1.10 1.09 1.09 1.03 0.99 0.99
1.20 1.16 1.17 1.21 1.28 1.26 1.08 1.04 1.06 1.10 1.04 1.01 1.07 1.15 1.22 1.24 1.26 1.28 1.20 1.10 1.09 1.13 1.00 0.93 0.92 0.91 0.89 0.86 0.97 1.13 1.15 1.18 1.20 1.18 1.13 1.10 1.10 1.03 0.96 0.94 0.97 0.94 0.93 0.92
1.10 1.01 1.02 1.09 1.11 1.13 1.16 1.12 1.00 1.01 0.98 0.99 1.05 1.17 1.31 1.31 1.23 1.13 1.04 1.07 1.09 0.99 0.88 0.88 0.84 0.77 0.76 0.74 0.87 1.03 1.07 1.10 1.11 1.13 1.10 1.06 1.02 0.95 0.93 0.93 0.91 0.87 0.85 0.80
1.09 1.01 1.02 1.08 1.16 1.20 1.20 1.18 1.09 1.06 1.08 1.08 1.07 1.13 1.23 1.31 1.32 1.16 0.99 0.97 1.06 0.92 0.81 0.83 0.79 0.75 0.70 0.75 0.86 0.97 1.04 1.05 1.06 1.09 1.04 0.96 0.91 0.89 0.89 0.91 0.89 0.87 0.83 0.74
1.09 1.06 1.10 1.16 1.21 1.24 1.24 1.28 1.29 1.23 1.28 1.31 1.24 1.21 1.22 1.25 1.26 1.18 1.10 1.02 1.02 0.94 0.79 0.74 0.73 0.72 0.71 0.78 0.85 0.92 0.98 1.02 1.01 1.01 0.98 0.94 0.90 0.87 0.89 0.88 0.85 0.81 0.75 0.69
1.09 1.10 1.18 1.24 1.25 1.22 1.27 1.42 1.55 1.57 1.61 1.62 1.60 1.50 1.39 1.29 1.23 1.15 1.10 1.07 1.04 0.96 0.87 0.80 0.77 0.77 0.78 0.80 0.85 0.94 1.02 1.04 0.99 0.95 0.95 0.97 0.97 0.93 0.89 0.84 0.78 0.72 0.68 0.67